Location: Ergnies
(50.0854°N, 2.0375°E)
Time: 05:38:25
(UTC+00:00)

Okean 3 Rocket - Pass Details

Date: 14 January 2026
Orbit: 610 x 637 km, 82.5° (Epoch: 10 February)

Event Time Altitude Azimuth Distance (km) Brightness Sun altitude
Rises 05:42:03 0° 202° (SSW) 2,871 6.9 -19.1°
Reaches altitude 10° 05:44:19 10° 208° (SSW) 1,974 6.0 -18.8°
Maximum altitude 05:48:34 50° 284° (WNW) 790 3.6 -18.1°
Drops below altitude 10° 05:52:54 10° 1° (N) 2,005 6.1 -17.4°
Sets 05:55:13 0° 7° (N) 2,921 7.0 -17.1°
